Location: Charbonni�res
(45.9952°N, 2.9982°E)
Time: 17:24:14
(UTC+00:00)

Atlas Centaur 2 - Pass Details

Date: 29 November 2020
Orbit: 459 x 1309 km, 30.4° (Epoch: 17 January)

Event Time Altitude Azimuth Distance (km) Brightness Sun altitude
Exits shadow 06:09:44 - 246° (WSW) 3,675 5.1 -9.8°
Rises 06:09:47 0° 246° (WSW) 3,658 5.1 -9.8°
Reaches altitude 10° 06:13:54 10° 224° (SW) 2,502 4.4 -9.2°
Maximum altitude 06:16:57 14° 193° (SSW) 2,047 4.3 -8.7°
Drops below altitude 10° 06:19:41 10° 161° (SSE) 2,193 5.0 -8.2°
Sets 06:22:55 0° 136° (SE) 2,936 6.5 -7.7°
